EZY12KC EGAA-EGKK

Flight info

Callsign EZY12KC
Flight time 1h 9m
Altitude 33000
Route LISBO DCT RINGA DCT BABGU DCT ETIGA DCT INKOB Q39 NOMSU UQ4 WAL L151 DISIT
Aircraft A320/M-SDE2E3FGHIJ1RWXYZ/LB1

Departure

Time 2026-05-05 19:42
Airport Belfast International Airport (EGAA)

Arrival

Time 2026-05-05 20:51
Airport London Gatwick Airport (EGKK)
Time Latitude Longitude Altitude Speed Heading
2026-05-05 19:06 54.66111 -6.21348 272 ft 0 kts 245°
2026-05-05 19:32 54.66115 -6.21332 272 ft 2 kts 245°
2026-05-05 19:32 54.66122 -6.21306 275 ft 2 kts 242°
2026-05-05 19:32 54.66133 -6.21285 278 ft 2 kts 192°
2026-05-05 19:33 54.66150 -6.21282 277 ft 2 kts 162°
2026-05-05 19:33 54.66165 -6.21291 277 ft 1 kts 159°
2026-05-05 19:33 54.66166 -6.21291 277 ft 0 kts 159°
2026-05-05 19:36 54.66157 -6.21286 276 ft 6 kts 159°
2026-05-05 19:36 54.66103 -6.21243 273 ft 8 kts 155°
2026-05-05 19:37 54.66056 -6.21198 273 ft 7 kts 136°
2026-05-05 19:37 54.66058 -6.21116 274 ft 12 kts 63°
2026-05-05 19:37 54.66103 -6.20949 274 ft 15 kts 65°
2026-05-05 19:37 54.66147 -6.20784 274 ft 15 kts 65°
2026-05-05 19:38 54.66184 -6.20649 272 ft 10 kts 65°
2026-05-05 19:38 54.66212 -6.20542 274 ft 10 kts 65°
2026-05-05 19:38 54.66239 -6.20443 272 ft 8 kts 65°
2026-05-05 19:38 54.66274 -6.20313 275 ft 16 kts 64°
2026-05-05 19:39 54.66322 -6.20137 273 ft 15 kts 65°
2026-05-05 19:39 54.66357 -6.20004 276 ft 11 kts 65°
2026-05-05 19:39 54.66382 -6.19911 272 ft 8 kts 65°
2026-05-05 19:39 54.66391 -6.19793 272 ft 16 kts 100°
2026-05-05 19:40 54.66335 -6.19687 272 ft 10 kts 154°
2026-05-05 19:40 54.66278 -6.19664 272 ft 8 kts 195°
2026-05-05 19:40 54.66250 -6.19722 272 ft 3 kts 245°
2026-05-05 19:40 54.66249 -6.19724 275 ft 0 kts 245°
2026-05-05 19:41 54.66155 -6.20077 272 ft 72 kts 245°
2026-05-05 19:41 54.65852 -6.21211 276 ft 133 kts 245°
2026-05-05 19:42 54.65389 -6.22916 362 ft 173 kts 244°
2026-05-05 19:42 54.64862 -6.24790 997 ft 176 kts 245°
2026-05-05 19:42 54.64339 -6.26737 1665 ft 182 kts 245°
2026-05-05 19:42 54.63792 -6.28829 2064 ft 202 kts 250°
2026-05-05 19:43 54.63152 -6.31156 2413 ft 228 kts 248°
2026-05-05 19:43 54.62434 -6.33753 2877 ft 252 kts 246°
2026-05-05 19:43 54.61645 -6.36550 3613 ft 264 kts 246°
2026-05-05 19:43 54.60833 -6.39414 4578 ft 268 kts 245°
2026-05-05 19:44 54.60006 -6.42329 5517 ft 272 kts 244°
2026-05-05 19:44 54.59156 -6.45267 6452 ft 276 kts 241°
2026-05-05 19:44 54.57899 -6.47802 6851 ft 282 kts 217°
2026-05-05 19:44 54.56108 -6.49149 7141 ft 287 kts 189°
2026-05-05 19:45 54.54112 -6.49006 8018 ft 290 kts 165°
2026-05-05 19:45 54.52309 -6.47436 8874 ft 295 kts 139°
2026-05-05 19:45 54.51084 -6.44616 9719 ft 299 kts 111°
2026-05-05 19:45 54.50550 -6.41138 10366 ft 309 kts 101°
2026-05-05 19:46 54.50095 -6.37383 10643 ft 332 kts 101°
2026-05-05 19:46 54.49617 -6.33425 11217 ft 342 kts 101°
2026-05-05 19:46 54.49120 -6.29387 11929 ft 348 kts 101°
2026-05-05 19:46 54.48610 -6.25289 12664 ft 353 kts 101°
2026-05-05 19:47 54.48092 -6.21135 13390 ft 358 kts 101°
2026-05-05 19:47 54.47565 -6.16926 14068 ft 363 kts 102°
2026-05-05 19:47 54.47028 -6.12666 14702 ft 366 kts 102°
2026-05-05 19:47 54.46483 -6.08362 15351 ft 370 kts 102°
2026-05-05 19:48 54.45930 -6.04026 15998 ft 373 kts 102°
2026-05-05 19:48 54.45372 -5.99652 16636 ft 377 kts 102°
2026-05-05 19:48 54.44805 -5.95228 17283 ft 380 kts 102°
2026-05-05 19:48 54.44231 -5.90775 17928 ft 384 kts 102°
2026-05-05 19:49 54.43649 -5.86284 18536 ft 387 kts 102°
2026-05-05 19:49 54.43253 -5.83226 18903 ft 389 kts 102°
2026-05-05 19:49 54.42471 -5.77196 19619 ft 393 kts 102°
2026-05-05 19:49 54.41874 -5.72593 20171 ft 396 kts 102°
2026-05-05 19:50 54.41270 -5.67954 20709 ft 399 kts 103°
2026-05-05 19:50 54.40661 -5.63293 21236 ft 402 kts 103°
2026-05-05 19:50 54.39890 -5.58670 21728 ft 405 kts 111°
2026-05-05 19:50 54.38672 -5.54314 22243 ft 407 kts 122°
2026-05-05 19:51 54.37086 -5.50280 22728 ft 409 kts 126°
2026-05-05 19:51 54.35452 -5.46278 23231 ft 412 kts 126°
2026-05-05 19:51 54.33808 -5.42238 23706 ft 415 kts 126°
2026-05-05 19:51 54.32157 -5.38174 24110 ft 417 kts 126°
2026-05-05 19:52 54.30494 -5.34086 24525 ft 419 kts 126°
2026-05-05 19:52 54.28819 -5.29979 24927 ft 421 kts 126°
2026-05-05 19:52 54.27115 -5.25884 25331 ft 423 kts 128°
2026-05-05 19:52 54.25314 -5.21885 25725 ft 425 kts 130°
2026-05-05 19:53 54.23434 -5.17960 26111 ft 427 kts 131°
2026-05-05 19:53 54.21510 -5.14074 26497 ft 429 kts 132°
2026-05-05 19:53 54.19569 -5.10186 26872 ft 432 kts 132°
2026-05-05 19:53 54.17624 -5.06258 27243 ft 434 kts 132°
2026-05-05 19:54 54.15682 -5.02299 27610 ft 437 kts 131°
2026-05-05 19:54 54.13737 -4.98297 27959 ft 439 kts 131°
2026-05-05 19:54 54.11794 -4.94276 28328 ft 441 kts 131°
2026-05-05 19:54 54.09838 -4.90220 28701 ft 443 kts 131°
2026-05-05 19:55 54.07875 -4.86159 29049 ft 446 kts 131°
2026-05-05 19:55 54.05896 -4.82085 29392 ft 448 kts 131°
2026-05-05 19:55 54.03906 -4.77989 29742 ft 450 kts 131°
2026-05-05 19:55 54.01951 -4.73799 30080 ft 453 kts 129°
2026-05-05 19:56 54.00042 -4.69532 30377 ft 455 kts 128°
2026-05-05 19:56 53.98151 -4.65210 30656 ft 456 kts 128°
2026-05-05 19:56 53.96261 -4.60869 30924 ft 458 kts 128°
2026-05-05 19:56 53.94361 -4.56523 31183 ft 460 kts 128°
2026-05-05 19:57 53.92437 -4.52173 31446 ft 461 kts 129°
2026-05-05 19:57 53.91156 -4.49306 31663 ft 461 kts 129°
2026-05-05 19:57 53.88552 -4.43536 32163 ft 459 kts 129°
2026-05-05 19:57 53.86612 -4.39244 32536 ft 458 kts 128°
2026-05-05 19:58 53.84732 -4.34891 32897 ft 458 kts 127°
2026-05-05 19:58 53.82911 -4.30470 33032 ft 455 kts 126°
2026-05-05 19:58 53.81163 -4.26104 33047 ft 444 kts 125°
2026-05-05 19:59 53.77738 -4.17509 33047 ft 438 kts 126°
2026-05-05 19:59 53.74290 -4.09032 33043 ft 437 kts 126°
2026-05-05 20:00 53.70808 -4.00635 33044 ft 436 kts 127°
2026-05-05 20:00 53.67319 -3.92265 33033 ft 436 kts 127°
2026-05-05 20:01 53.63830 -3.83881 33034 ft 436 kts 127°
2026-05-05 20:01 53.60345 -3.75520 33036 ft 436 kts 127°
2026-05-05 20:02 53.56849 -3.67179 33032 ft 436 kts 127°
2026-05-05 20:02 53.53349 -3.58856 33039 ft 436 kts 127°
2026-05-05 20:03 53.49839 -3.50567 33039 ft 435 kts 127°
2026-05-05 20:03 53.46518 -3.42069 33038 ft 437 kts 118°
2026-05-05 20:04 53.44116 -3.32692 33033 ft 438 kts 115°
2026-05-05 20:04 53.41726 -3.23312 33038 ft 438 kts 115°
2026-05-05 20:05 53.38741 -3.14487 33042 ft 433 kts 132°
2026-05-05 20:05 53.34301 -3.07858 33040 ft 426 kts 149°
2026-05-05 20:06 53.29389 -3.02288 33040 ft 427 kts 148°
2026-05-05 20:06 53.24489 -2.96687 33044 ft 427 kts 148°
2026-05-05 20:07 53.19587 -2.91124 33040 ft 426 kts 148°
2026-05-05 20:07 53.14676 -2.85578 33040 ft 426 kts 148°
2026-05-05 20:08 53.09764 -2.80039 33016 ft 426 kts 148°
2026-05-05 20:08 53.05678 -2.75444 33024 ft 427 kts 148°
2026-05-05 20:09 53.00763 -2.69913 33019 ft 427 kts 148°
2026-05-05 20:09 52.95837 -2.64403 33007 ft 427 kts 147°
2026-05-05 20:10 52.90904 -2.58909 33013 ft 427 kts 147°
2026-05-05 20:10 52.85963 -2.53424 33016 ft 428 kts 147°
2026-05-05 20:11 52.81016 -2.47948 33014 ft 428 kts 147°
2026-05-05 20:11 52.76074 -2.42472 32978 ft 427 kts 147°
2026-05-05 20:11 52.73624 -2.39760 32704 ft 421 kts 147°
2026-05-05 20:12 52.71202 -2.37086 32388 ft 416 kts 147°
2026-05-05 20:12 52.68805 -2.34443 31884 ft 414 kts 147°
2026-05-05 20:12 52.66424 -2.31820 31416 ft 410 kts 147°
2026-05-05 20:12 52.64058 -2.29221 30937 ft 407 kts 147°
2026-05-05 20:13 52.61668 -2.26606 30471 ft 404 kts 147°
2026-05-05 20:13 52.59348 -2.24072 30002 ft 401 kts 147°
2026-05-05 20:13 52.57039 -2.21550 29530 ft 396 kts 147°
2026-05-05 20:13 52.54755 -2.19055 29094 ft 391 kts 147°
2026-05-05 20:14 52.52505 -2.16602 28673 ft 386 kts 147°
2026-05-05 20:14 52.50282 -2.14184 28259 ft 381 kts 148°
2026-05-05 20:14 52.48089 -2.11803 27868 ft 375 kts 148°
2026-05-05 20:14 52.45927 -2.09454 27457 ft 371 kts 148°
2026-05-05 20:15 52.43785 -2.07129 27038 ft 367 kts 148°
2026-05-05 20:15 52.41667 -2.04830 26627 ft 364 kts 149°
2026-05-05 20:15 52.39566 -2.02550 26209 ft 361 kts 149°
2026-05-05 20:15 52.37484 -2.00294 25796 ft 358 kts 149°
2026-05-05 20:16 52.35413 -1.98054 25360 ft 356 kts 149°
2026-05-05 20:16 52.33354 -1.95833 24941 ft 353 kts 149°
2026-05-05 20:16 52.31306 -1.93626 24490 ft 352 kts 149°
2026-05-05 20:16 52.29278 -1.91446 24067 ft 351 kts 149°
2026-05-05 20:17 52.27228 -1.89243 23632 ft 350 kts 149°
2026-05-05 20:17 52.25204 -1.87071 23150 ft 349 kts 149°
2026-05-05 20:17 52.23180 -1.84902 22704 ft 346 kts 149°
2026-05-05 20:17 52.21173 -1.82753 22287 ft 343 kts 149°
2026-05-05 20:18 52.19184 -1.80622 21861 ft 341 kts 149°
2026-05-05 20:18 52.17206 -1.78502 21453 ft 339 kts 149°
2026-05-05 20:18 52.15237 -1.76397 21036 ft 338 kts 149°
2026-05-05 20:18 52.13278 -1.74309 20627 ft 336 kts 149°
2026-05-05 20:19 52.11324 -1.72230 20217 ft 335 kts 148°
2026-05-05 20:19 52.09382 -1.70163 19845 ft 335 kts 148°
2026-05-05 20:19 52.07413 -1.68072 19574 ft 338 kts 148°
2026-05-05 20:19 52.05443 -1.65981 19282 ft 338 kts 148°
2026-05-05 20:20 52.03479 -1.63898 18989 ft 336 kts 148°
2026-05-05 20:20 52.01524 -1.61826 18665 ft 335 kts 148°
2026-05-05 20:20 51.99577 -1.59763 18374 ft 334 kts 148°
2026-05-05 20:20 51.97643 -1.57711 18050 ft 332 kts 148°
2026-05-05 20:21 51.95725 -1.55679 17764 ft 330 kts 148°
2026-05-05 20:21 51.93794 -1.53639 17470 ft 329 kts 148°
2026-05-05 20:21 51.91879 -1.51622 17182 ft 328 kts 148°
2026-05-05 20:21 51.89974 -1.49615 16894 ft 327 kts 148°
2026-05-05 20:22 51.88071 -1.47614 16607 ft 325 kts 148°
2026-05-05 20:22 51.86179 -1.45625 16330 ft 324 kts 148°
2026-05-05 20:22 51.84293 -1.43640 16043 ft 322 kts 148°
2026-05-05 20:22 51.82419 -1.41673 15761 ft 321 kts 148°
2026-05-05 20:23 51.80547 -1.39709 15475 ft 320 kts 148°
2026-05-05 20:23 51.78682 -1.37754 15203 ft 319 kts 148°
2026-05-05 20:23 51.76827 -1.35810 14929 ft 318 kts 148°
2026-05-05 20:23 51.74973 -1.33870 14754 ft 318 kts 148°
2026-05-05 20:24 51.73117 -1.31929 14581 ft 318 kts 148°
2026-05-05 20:24 51.71301 -1.30035 14398 ft 318 kts 148°
2026-05-05 20:24 51.69439 -1.28096 14214 ft 318 kts 148°
2026-05-05 20:24 51.67586 -1.26171 14028 ft 318 kts 148°
2026-05-05 20:25 51.65728 -1.24239 13850 ft 317 kts 148°
2026-05-05 20:25 51.63883 -1.22314 13657 ft 316 kts 148°
2026-05-05 20:25 51.62040 -1.20397 13469 ft 315 kts 148°
2026-05-05 20:25 51.60200 -1.18489 13287 ft 315 kts 148°
2026-05-05 20:26 51.58357 -1.16582 13107 ft 314 kts 148°
2026-05-05 20:26 51.56524 -1.14687 12927 ft 313 kts 148°
2026-05-05 20:26 51.54695 -1.12800 12748 ft 312 kts 148°
2026-05-05 20:26 51.52868 -1.10920 12570 ft 311 kts 148°
2026-05-05 20:27 51.51051 -1.09050 12387 ft 310 kts 147°
2026-05-05 20:27 51.49234 -1.07179 12203 ft 309 kts 147°
2026-05-05 20:27 51.47432 -1.05319 12031 ft 308 kts 147°
2026-05-05 20:27 51.45628 -1.03458 11854 ft 308 kts 147°
2026-05-05 20:28 51.43829 -1.01607 11673 ft 308 kts 147°
2026-05-05 20:28 51.42027 -0.99758 11498 ft 307 kts 147°
2026-05-05 20:28 51.40236 -0.97924 11320 ft 306 kts 147°
2026-05-05 20:28 51.38443 -0.96088 11135 ft 305 kts 147°
2026-05-05 20:29 51.36655 -0.94255 10966 ft 305 kts 147°
2026-05-05 20:29 51.34869 -0.92423 10781 ft 305 kts 147°
2026-05-05 20:29 51.33089 -0.90598 10616 ft 304 kts 147°
2026-05-05 20:29 51.31304 -0.88769 10451 ft 303 kts 146°
2026-05-05 20:30 51.29533 -0.86962 10277 ft 302 kts 147°
2026-05-05 20:30 51.27761 -0.85161 10103 ft 302 kts 147°
2026-05-05 20:30 51.25993 -0.83366 9930 ft 301 kts 147°
2026-05-05 20:30 51.24226 -0.81570 9750 ft 300 kts 146°
2026-05-05 20:31 51.22472 -0.79785 9577 ft 299 kts 146°
2026-05-05 20:31 51.20723 -0.78007 9400 ft 298 kts 146°
2026-05-05 20:31 51.18980 -0.76238 9226 ft 297 kts 146°
2026-05-05 20:31 51.17242 -0.74471 9051 ft 296 kts 146°
2026-05-05 20:32 51.15510 -0.72712 8883 ft 295 kts 146°
2026-05-05 20:32 51.13781 -0.70961 8714 ft 294 kts 146°
2026-05-05 20:32 51.12057 -0.69219 8545 ft 293 kts 146°
2026-05-05 20:32 51.10335 -0.67485 8366 ft 292 kts 146°
2026-05-05 20:33 51.08620 -0.65760 8201 ft 291 kts 146°
2026-05-05 20:33 51.06916 -0.64025 8030 ft 290 kts 143°
2026-05-05 20:33 51.05452 -0.61907 7872 ft 287 kts 128°
2026-05-05 20:33 51.04372 -0.59277 7702 ft 284 kts 114°
2026-05-05 20:34 51.03502 -0.56467 7534 ft 283 kts 114°
2026-05-05 20:34 51.02632 -0.53673 7367 ft 282 kts 114°
2026-05-05 20:34 51.01759 -0.50885 7195 ft 281 kts 114°
2026-05-05 20:34 51.00890 -0.48116 7093 ft 280 kts 114°
2026-05-05 20:35 51.00021 -0.45352 6932 ft 279 kts 114°
2026-05-05 20:35 50.99151 -0.42589 6779 ft 278 kts 114°
2026-05-05 20:35 50.98290 -0.39852 6610 ft 277 kts 114°
2026-05-05 20:35 50.97425 -0.37113 6462 ft 277 kts 114°
2026-05-05 20:36 50.96565 -0.34394 6295 ft 276 kts 115°
2026-05-05 20:36 50.95705 -0.31681 6134 ft 275 kts 114°
2026-05-05 20:36 50.94848 -0.28973 5974 ft 274 kts 114°
2026-05-05 20:36 50.93997 -0.26279 5809 ft 273 kts 114°
2026-05-05 20:37 50.93143 -0.23586 5666 ft 273 kts 114°
2026-05-05 20:37 50.92569 -0.21776 5551 ft 272 kts 114°
2026-05-05 20:37 50.91445 -0.18232 5349 ft 271 kts 114°
2026-05-05 20:37 50.90606 -0.15596 5201 ft 263 kts 114°
2026-05-05 20:38 50.89802 -0.13072 5070 ft 250 kts 114°
2026-05-05 20:38 50.89035 -0.10664 4903 ft 241 kts 114°
2026-05-05 20:38 50.88405 -0.08270 4787 ft 231 kts 97°
2026-05-05 20:38 50.88522 -0.05783 4733 ft 227 kts 66°
2026-05-05 20:39 50.89397 -0.03768 4686 ft 223 kts 38°
2026-05-05 20:39 50.90774 -0.02711 4634 ft 222 kts 10°
2026-05-05 20:39 50.92306 -0.02861 4583 ft 224 kts 342°
2026-05-05 20:39 50.93607 -0.04210 4522 ft 228 kts 312°
2026-05-05 20:40 50.94424 -0.06381 4446 ft 232 kts 299°
2026-05-05 20:40 50.95152 -0.08663 4366 ft 232 kts 299°
2026-05-05 20:40 50.95889 -0.10977 4291 ft 232 kts 299°
2026-05-05 20:40 50.96615 -0.13258 4208 ft 232 kts 299°
2026-05-05 20:41 50.97343 -0.15539 4129 ft 232 kts 299°
2026-05-05 20:41 50.98069 -0.17806 4056 ft 231 kts 299°
2026-05-05 20:41 50.98678 -0.20180 3955 ft 233 kts 287°
2026-05-05 20:41 50.99079 -0.22677 3771 ft 233 kts 286°
2026-05-05 20:42 50.99474 -0.25163 3627 ft 232 kts 286°
2026-05-05 20:42 50.99869 -0.27650 3465 ft 232 kts 286°
2026-05-05 20:42 51.00263 -0.30125 3293 ft 231 kts 286°
2026-05-05 20:42 51.00657 -0.32599 3141 ft 231 kts 286°
2026-05-05 20:43 51.01050 -0.35065 3033 ft 227 kts 285°
2026-05-05 20:43 51.01425 -0.37423 3018 ft 214 kts 285°
2026-05-05 20:43 51.01783 -0.39692 3021 ft 211 kts 286°
2026-05-05 20:43 51.02142 -0.41951 3028 ft 211 kts 285°
2026-05-05 20:44 51.02500 -0.44206 3029 ft 211 kts 286°
2026-05-05 20:44 51.02860 -0.46461 3031 ft 211 kts 286°
2026-05-05 20:44 51.03221 -0.48712 3025 ft 210 kts 286°
2026-05-05 20:44 51.03581 -0.50966 3028 ft 210 kts 286°
2026-05-05 20:45 51.05265 -0.54348 3025 ft 203 kts 349°
2026-05-05 20:45 51.06192 -0.54406 3035 ft 202 kts
2026-05-05 20:45 51.07591 -0.54148 3033 ft 203 kts
2026-05-05 20:46 51.08941 -0.53564 3021 ft 202 kts 30°
2026-05-05 20:46 51.09978 -0.52089 3025 ft 203 kts 56°
2026-05-05 20:46 51.10492 -0.50012 3037 ft 204 kts 76°
2026-05-05 20:46 51.10799 -0.47816 3023 ft 201 kts 76°
2026-05-05 20:47 51.11092 -0.45715 3028 ft 190 kts 76°
2026-05-05 20:47 51.11376 -0.43689 3038 ft 186 kts 76°
2026-05-05 20:47 51.11656 -0.41696 2876 ft 184 kts 76°
2026-05-05 20:47 51.11932 -0.39729 2656 ft 179 kts 76°
2026-05-05 20:48 51.12200 -0.37817 2428 ft 175 kts 77°
2026-05-05 20:48 51.12463 -0.35942 2195 ft 172 kts 77°
2026-05-05 20:48 51.12720 -0.34103 1961 ft 169 kts 77°
2026-05-05 20:48 51.12968 -0.32327 1748 ft 161 kts 77°
2026-05-05 20:49 51.13207 -0.30613 1526 ft 157 kts 78°
2026-05-05 20:49 51.13442 -0.28921 1312 ft 156 kts 78°
2026-05-05 20:49 51.13667 -0.27308 1110 ft 143 kts 78°
2026-05-05 20:49 51.13877 -0.25802 906 ft 136 kts 77°
2026-05-05 20:50 51.14078 -0.24350 700 ft 133 kts 77°
2026-05-05 20:50 51.14277 -0.22900 512 ft 131 kts 77°
2026-05-05 20:50 51.14475 -0.21495 337 ft 130 kts 77°
2026-05-05 20:50 51.14666 -0.20115 213 ft 125 kts 77°
2026-05-05 20:51 51.14810 -0.19069 211 ft 54 kts 77°
2026-05-05 20:51 51.14880 -0.18642 211 ft 35 kts 62°
2026-05-05 20:51 51.15004 -0.18392 212 ft 19 kts 50°
2026-05-05 20:51 51.15084 -0.18238 210 ft 15 kts 49°
2026-05-05 20:52 51.15125 -0.18182 212 ft 4 kts 351°
2026-05-05 20:52 51.15192 -0.18210 212 ft 16 kts 346°
2026-05-05 20:52 51.15288 -0.18246 207 ft 13 kts 347°
2026-05-05 20:52 51.15377 -0.18277 213 ft 13 kts 348°
2026-05-05 20:53 51.15446 -0.18209 205 ft 14 kts 74°
2026-05-05 20:53 51.15466 -0.18051 209 ft 16 kts 78°
2026-05-05 20:53 51.15490 -0.17871 209 ft 17 kts 77°
2026-05-05 20:53 51.15516 -0.17682 210 ft 18 kts 78°
2026-05-05 20:54 51.15540 -0.17514 205 ft 13 kts 78°
2026-05-05 20:54 51.15589 -0.17391 213 ft 14 kts 65°
2026-05-05 20:54 51.15618 -0.17228 210 ft 16 kts 76°
2026-05-05 20:54 51.15646 -0.17057 205 ft 15 kts 53°
2026-05-05 20:55 51.15740 -0.17059 205 ft 14 kts 346°
2026-05-05 20:55 51.15840 -0.17086 210 ft 12 kts
2026-05-05 20:55 51.15892 -0.17101 208 ft 6 kts 319°
2026-05-05 20:55 51.15919 -0.17143 215 ft 5 kts 317°
2026-05-05 20:56 51.15936 -0.17168 214 ft 1 kts 318°
2026-05-05 20:56 51.15937 -0.17169 213 ft 0 kts 318°